Location: Unspecified
(0.0000°N, 0.0000°E)
Time: 04:45:09
(UTC+00:00)

Tianhe-1 - Pass Details

Date: 09 May 2021
Orbit: 360 x 384 km, 41.5° (Epoch: 18 May)

Event Time Altitude Azimuth Distance (km) Brightness Sun altitude
Rises 19:33:25 0° 234° (SW) 2,217 5.4 -23.0°
Reaches altitude 10° 19:35:30 10° 240° (WSW) 1,371 4.4 -23.5°
Enters shadow 19:37:13 28° 257° (WSW) 739 3.0 -23.9°
